Starlink 35112

operational
NORAD ID: 65520 Int'l Des: 2025-200 Owner: SPXS Country: US Constellation: starlink
LEOCIRCULARRETROGRADE

Über Starlink 35112

Beschreibung wird geladen...

Live-Position

3D-Globus wird geladen...

Nächste Überflüge

Höhenverlauf

Altitude vs Time

uPlot chart will show altitude changes over time

Zweizeiliger Elementsatz

1 65520U 25200A 25351.72274435 .00002708 00000-0 19180-3 0 9996
2 65520 97.6063 58.9427 0001227 98.1448 261.9918 15.05653068 16790
Epoch: 17. Dez. 2025 • Age: 18 hours

Aktueller Status

Höhe 561.7 km
Geschwindigkeit 7.59 km/s
Subsatellitenpunkt 76.81°N, 16.81°E
Startdatum 6. Sept. 2025
Alter 0.2 years
Typ internet

Technische Details

Klassifizierung Payload
Masse 575.00 kg
Trockenmasse 530.00 kg
Gesamtmasse 575.00 kg
Länge 0.30 m
Durchmesser 4.10 m
Spannweite 29.00 m
Form Box + pan
Hersteller SPXS
Bus-Typ Starlink V2MO
Phasenstatus In Orbit
Besitzer/Staat SPXS/US

Große Konstellationen

Loading constellations...